sat.trackr.live / text

‹ back to catalog

STARLINK-34737

NORAD 64933 · 2025-158B

PAYLOAD ACTIVE UNKNOWN

§ Identity

Operator
Country
US
Launch date
2025-07-27
Launch site
AFWTR
Launch vehicle
Mass (kg)
RCS (m²)

Purposes: comms

External: N2YO · Heavens-Above · Gunter

§ Orbital elements

Epoch: 2026-05-25T02:41:15.077184Z

Period
95.64 min
Inclination
97.4491°
Eccentricity
0.0001484
Mean motion
15.05662412 rev/d
Perigee alt
548.4 km
Apogee alt
550.5 km
Semi-major
6,927.6 km
B*
3.7838e-4
RAAN
9.0039°
Arg perigee
75.5971°
Mean anomaly
284.5421°
Rev number
4,685

§ Raw data

STARLINK-347371 64933U 25158B   26145.11198006  .00005407  00000+0  37838-3 0  99972 64933  97.4491   9.0039 0001484  75.5971 284.5421 15.05662412 46854

JSON: /api/v1/satellites/64933 · /tle

For live sub-satellite position, see the globe view (requires WebGL).

§ Visibility from observer

Set your observer location to see the next 7 days of passes ≥ 10°. The values pass through the URL so the page stays shareable.

No JS? Fill the form by hand. The geolocation button needs JavaScript.